Terminal Aerodrome Forecast
Issued by NWS Blacksburg, VA

Current Version | Previous Version | Graphics & Text | Print | Product List | Glossary On
Versions: 1 2 3 4 5 6 7 8 9 10 11 12 13 14 15 16 17 18 19 20 21 22 23 24 25 26 27 28 29 30 31 32 33 34 35 36 37 38 39 40 41 42
000
FTUS41 KRNK 101130
TAFBLF
TAF
KBLF 101130Z 1012/1112 26005KT P6SM SCT080
     FM101400 VRB03KT P6SM SCT025 BKN100
     FM101700 22004KT P6SM VCSH BKN040
     FM110000 VRB03KT P6SM SCT035 BKN100
     FM110800 15003KT 5SM BR SCT250=

USA.gov is the U.S. government's official web portal to all federal, state and local government web resources and services.